CZ-6A DEB

Satellite information

Favourite Embed

Satellite Type and Status

DEBRISIN ORBIT

Key statistics

Satellite CZ-6A DEB at a glance.

Uptime

1033

Days in orbit

Revolutions

≈ 14.3

Per day

Orbit

SSO

Sun Synchronous Orbit

Inclination

98.6

Latest

Satellite identification and parameters

Extended collection of information and parameters for CZ-6A DEB.

Object identification

Identified? True

Debris? True

Object name: CZ-6A DEB

International designator: 2022-151DZ

Object number (NORAD): 54401

Object ID (CCSDS): 54401

Country: PEOPLES REPUBLIC OF CHINA (PRC)

Current information (Y/N): Y

RCS size: SMALL

Orbital parameters

Period: 100.818 minutes

Inclination: 98.6455 deg

SMA: 7175.521 km

Apoapsis: 882.214 km

Periapsis: 712.558 km

RAAN: 247.3727 deg

Eccentricy: 0.01182191

Argument of periapsis: 246.4816 deg

Mean anomaly: 112.3908 deg

Mean motion: 14.28310405 rev/day

Mean motion (dot): 0.00002344 rev/day2

B* drag term: 0.00088824418 1/REarth

Two-line elements (TLE)

Creation date: Sept. 8, 2025, 6:18 p.m.

Reference frame: TEME

Reference center: EARTH

Epoch: Sept. 8, 2025, 1:27 p.m. UTC

TLE line 0: 0 CZ-6A DEB

TLE line 1: 1 54401U 22151DZ 25251.56107423 .00002344 00000-0 88824-3 0 9994

TLE line 2: 2 54401 98.6455 247.3727 0118219 246.4816 112.3908 14.28310405146225

Live tracking on map

Real-time ground track for satellite CZ-6A DEB.

In-orbit conjunctions

A list of the most updated potential collisions computed for object CZ-6A DEB.

Target Orbit TCA Probability of collision Miss distance Type
CZ-6A DEB LEO 2025-07-27 10:07:05 0.0001298677 238.0 (m) DEBRIS
SL-3 R/B LEO 2025-07-18 20:07:36 0.001644578 205.0 (m) ROCKET BODY
COSMOS 2251 DEB LEO 2024-09-25 12:17:20 0.0001195894 948.0 (m) DEBRIS
COSMOS 1048 LEO 2024-05-28 16:07:27 0.0002443902 426.0 (m) PAYLOAD

Associated space launch

Chinese satellite reported for atmospheric/ocean/environmental/spatial parameter research purposes, details TBD.

CZ-6A DEB was lifted into orbit during the mission ‘Long March 6A | Yunhai 3’, on board a Long March 6A space rocket.

The launch took place on Nov. 11, 2022, 10:52 p.m. from Launch Complex 9A.

For more information about the launch, click the button.

Launch to space Long March 6A | Yunhai 3
Long March 6A | Yunhai 3

Agency: N/A

Status: Launch Successful

Launch date: Nov. 11, 2022, 10:52 p.m. UTC

Rocket: Long March 6A

Launch pad: Launch Complex 9A

Location: Taiyuan Satellite Launch Center, People's Republic of China

...

Latest news about this satellite

There are no fresh news available about this satellite. Check back as we update our databases every day.


Newsletter sign-up

Weekly statistics, charts and insights to help you stay on top of the space industry.